This demonstration page uses our WeatherBlox Daily Observations layout. Learn more.

36.17497, -115.13722

Hourly Observations for February 4, 2016

Temp ( °F °C ) Dew Point ( °F °C ) Humidity (%) Winds ( mph kmh ) Pressure ( in mb ) Visibility ( mi km ) Precip ( " mm )
12:53 am 00:53 Clear 35 1.7 21 -6.1 57 57 Calm 30.51 1033 10 16.0934 0 0
1:53 am 01:53 Clear 36 2.2 20 -6.7 52 52 Calm 30.51 1033 10 16.0934 0 0
2:53 am 02:53 Clear 35 1.7 20 -6.7 54 54 S 5 7 30.48 1032 10 16.0934 0 0
3:53 am 03:53 Clear 34 1.1 20 -6.7 56 56 N 7 11 30.5 1033 10 16.0934 0 0
4:53 am 04:53 Clear 32 0 20 -6.7 61 61 WNW 3 6 30.51 1033 10 16.0934 0 0
5:53 am 05:53 Clear 31 -0.6 20 -6.7 64 64 ESE 3 6 30.53 1034 10 16.0934 0 0
6:53 am 06:53 Sunny 31 -0.6 20 -6.7 64 64 NW 3 6 30.54 1034 10 16.0934 0 0
7:53 am 07:53 Sunny 36 2.2 20 -6.7 52 52 Calm 30.54 1034 10 16.0934 0 0
8:53 am 08:53 Sunny 40 4.4 20 -6.7 45 45 Calm 30.55 1034 10 16.0934 0 0
9:53 am 09:53 Sunny 46 7.8 19 -7.2 34 34 Calm 30.54 1034 10 16.0934 0 0
10:53 am 10:53 Sunny 46 7.8 16 -8.9 30 30 ESE 9 15 30.53 1034 10 16.0934 0 0
11:53 am 11:53 Sunny 47 8.3 15 -9.4 28 28 Calm 30.5 1033 10 16.0934 0 0
12:53 pm 12:53 Sunny 50 10 16 -8.9 26 26 E 6 9 30.47 1032 10 16.0934 0 0
1:53 pm 13:53 Sunny 51 10.6 15 -9.4 24 24 ESE 7 11 30.44 1031 10 16.0934 0 0
2:53 pm 14:53 Sunny 52 11.1 16 -8.9 24 24 E 6 9 30.43 1031 10 16.0934 0 0
3:53 pm 15:53 Sunny 52 11.1 17 -8.3 25 25 ESE 6 9 30.44 1031 10 16.0934 0 0
4:53 pm 16:53 Sunny 51 10.6 16 -8.9 25 25 SSE 3 6 30.44 1031 10 16.0934 0 0
5:53 pm 17:53 Clear 51 10.6 18 -7.8 27 27 SSW 3 6 30.45 1031 10 16.0934 0 0
6:53 pm 18:53 Clear 47 8.3 19 -7.2 33 33 WNW 6 9 30.46 1032 10 16.0934 0 0
7:53 pm 19:53 Clear 49 9.4 21 -6.1 33 33 N 9 15 30.46 1032 10 16.0934 0 0
8:53 pm 20:53 Clear 48 8.9 22 -5.6 36 36 N 13 20 30.48 1032 10 16.0934 0 0
9:53 pm 21:53 Clear 46 7.8 22 -5.6 38 38 N 10 17 30.5 1033 10 16.0934 0 0
10:53 pm 22:53 Clear 45 7.2 23 -5 42 42 N 10 17 30.51 1033 10 16.0934 0 0
11:53 pm 23:53 Clear 43 6.1 23 -5 45 45 Calm 30.52 1033 10 16.0934 0 0

Powered by AerisWeather